Weather History for KRDR - December, 2012

Change the Weather History Date:

Sunday, December 2, 2012

  Actual Average Record
Temperature  
Mean Temperature 32 °F -  
Max Temperature 40 °F 26 °F 41 °F (1999)
Min Temperature 24 °F 12 °F -11 °F (2007)
Degree Days  
Heating Degree Days 33    
Moisture  
Dew Point 29 °F    
Average Humidity 95    
Maximum Humidity 100    
Minimum Humidity 83    
Precipitation  
Precipitation 0.00 in - - ()
Sea Level Pressure  
Sea Level Pressure 29.78 in    
Wind  
Wind Speed 8 mph (SSE)    
Max Wind Speed 18 mph    
Max Gust Speed -    
Visibility 3 miles    
Events Fog    
Averages and records for this station are not official NWS values.
T = Trace of Precipitation, MM = Missing Value Source: NWS Daily Summary

Daily Weather History Graph

Daily Weather History Graph

Search for Another Location

Airport or City:

Trip Planner

Search our weather history database for the weather conditions in past years. The results will help you decide how hot, cold, wet, or windy it might be!

Date:

Astronomy

Dec. 02, 2012 Rise Set
Actual Time 8:00 AM CST 4:38 PM CST
Civil Twilight 7:24 AM CST 5:13 PM CST
Nautical Twilight 6:45 AM CST 5:52 PM CST
Astronomical Twilight 6:08 AM CST 6:30 PM CST
Moon 8:35 PM CST (12/2) 10:44 AM CST (12/2)
Length of Visible Light 9h 49m
Length of Day
8h 38m
Waning Gibbous, 85% of the Moon is Illuminated
Dec 2
Waning Gibbous
Dec 6
Last Quarter
Dec 13
New
Dec 19
First Quarter
Dec 28
Full

Hourly Weather History & Observations

Time (CST) Temp. Windchill Dew Point Humidity Pressure Visibility Wind Dir Wind Speed Gust Speed Precip Events Conditions
12:55 AM 24.6 °F 20.3 °F 22.1 °F 90% 29.93 in 10.0 mi ENE 3.5 mph - N/A   Overcast
1:55 AM 24.4 °F - 21.9 °F 90% 29.93 in 10.0 mi Calm Calm - N/A   Overcast
2:47 AM 24.8 °F - 21.2 °F 86% 29.94 in 10.0 mi Calm Calm - N/A   Overcast
2:55 AM 24.6 °F - 22.1 °F 90% 29.94 in 10.0 mi Calm Calm - N/A   Overcast
3:12 AM 24.8 °F 20.5 °F 23.0 °F 93% 29.94 in 9.0 mi East 3.5 mph - N/A   Overcast
3:29 AM 24.8 °F 20.5 °F 23.0 °F 93% 29.93 in 9.0 mi ESE 3.5 mph - N/A   Overcast
3:34 AM 24.8 °F 20.5 °F 23.0 °F 93% 29.92 in 9.0 mi ESE 3.5 mph - N/A   Overcast
3:39 AM 24.8 °F 20.5 °F 23.0 °F 93% 29.91 in 9.0 mi ESE 3.5 mph - N/A   Overcast
3:55 AM 24.4 °F 17.5 °F 22.5 °F 92% 29.92 in 7.0 mi ESE 5.8 mph - N/A   Overcast
4:27 AM 24.8 °F 16.9 °F 23.0 °F 93% 29.90 in 6.0 mi ESE 6.9 mph - N/A   Overcast
4:48 AM 24.8 °F 16.1 °F 23.0 °F 93% 29.89 in 5.0 mi SE 8.1 mph - N/A   Overcast
4:50 AM 24.8 °F 16.1 °F 23.0 °F 93% 29.89 in 5.0 mi SE 8.1 mph - N/A   Overcast
4:55 AM 25.0 °F 17.1 °F 23.5 °F 94% 29.90 in 5.0 mi SE 6.9 mph - N/A   Overcast
5:00 AM 24.8 °F 16.1 °F 23.0 °F 93% 29.90 in 5.0 mi SE 8.1 mph - N/A   Overcast
5:29 AM 24.8 °F 16.9 °F 24.8 °F 100% 29.90 in 4.0 mi SSE 6.9 mph - N/A   Overcast
5:55 AM 26.1 °F 16.8 °F 24.8 °F 95% 29.89 in 3.0 mi SE 9.2 mph - N/A   Overcast
5:58 AM 26.6 °F 17.5 °F 24.8 °F 93% 29.89 in 2.5 mi SSE 9.2 mph - N/A   Overcast
6:01 AM 26.6 °F 17.5 °F 24.8 °F 93% 29.89 in 2.5 mi SSE 9.2 mph - N/A   Overcast
6:13 AM 26.6 °F 18.2 °F 24.8 °F 93% 29.88 in 1.8 mi SSE 8.1 mph - N/A   Overcast
6:44 AM 26.6 °F 18.2 °F 26.6 °F 100% 29.88 in 1.5 mi SSE 8.1 mph - N/A   Light Freezing Drizzle
6:47 AM 26.6 °F 17.5 °F 26.6 °F 100% 29.88 in 1.2 mi SSE 9.2 mph - N/A   Light Freezing Drizzle
6:55 AM 27.1 °F 18.9 °F 26.2 °F 96% 29.87 in 1.2 mi SSE 8.1 mph - 0.00 in   Light Freezing Drizzle
7:09 AM 28.4 °F 19.7 °F 26.6 °F 93% 29.87 in 1.0 mi SSE 9.2 mph - N/A   Light Freezing Drizzle
7:14 AM 28.4 °F 19.7 °F 26.6 °F 93% 29.87 in 1.0 mi SSE 9.2 mph - N/A   Light Freezing Drizzle
7:26 AM 28.4 °F 20.4 °F 26.6 °F 93% 29.87 in 1.0 mi SSE 8.1 mph - N/A   Light Freezing Drizzle
7:37 AM 28.4 °F 18.0 °F 26.6 °F 93% 29.85 in 1.0 mi SSE 12.7 mph - N/A   Light Freezing Drizzle
7:55 AM 28.6 °F 18.2 °F 27.5 °F 96% 29.85 in 1.0 mi South 12.7 mph - 0.00 in   Light Freezing Drizzle
8:02 AM 28.4 °F 18.5 °F 28.4 °F 100% 29.84 in 1.0 mi South 11.5 mph - N/A   Light Freezing Drizzle
8:03 AM 28.4 °F 18.0 °F 28.4 °F 100% 29.84 in 0.8 mi SSE 12.7 mph - N/A   Light Freezing Drizzle
8:10 AM 28.4 °F 18.0 °F 28.4 °F 100% 29.84 in 0.8 mi South 12.7 mph - N/A   Light Freezing Drizzle
8:22 AM 30.2 °F 19.8 °F 28.4 °F 93% 29.84 in 1.0 mi South 13.8 mph - N/A   Light Freezing Drizzle
8:42 AM 30.2 °F 18.9 °F 28.4 °F 93% 29.84 in 1.0 mi South 16.1 mph - N/A   Mist
8:48 AM 30.2 °F 19.3 °F 28.4 °F 93% 29.84 in 0.8 mi South 15.0 mph - N/A   Mist
8:54 AM 30.2 °F 19.3 °F 28.4 °F 93% 29.85 in 0.8 mi South 15.0 mph - N/A   Mist
8:55 AM 29.5 °F 19.3 °F 28.8 °F 97% 29.85 in 0.8 mi South 12.7 mph - 0.00 in   Mist
9:03 AM 30.2 °F 20.8 °F 28.4 °F 93% 29.84 in 0.8 mi South 11.5 mph - N/A   Mist
9:09 AM 30.2 °F 19.8 °F 28.4 °F 93% 29.84 in 0.5 mi South 13.8 mph - N/A Fog Light Freezing Fog
9:10 AM 30.2 °F 20.2 °F 28.4 °F 93% 29.84 in 0.5 mi South 12.7 mph - N/A Fog Light Freezing Drizzle
9:23 AM 30.2 °F 20.8 °F 28.4 °F 93% 29.85 in 0.8 mi South 11.5 mph - N/A   Light Freezing Drizzle
9:27 AM 30.2 °F 20.8 °F 28.4 °F 93% 29.85 in 0.8 mi South 11.5 mph - N/A   Mist
9:49 AM 30.2 °F 20.8 °F 30.2 °F 100% 29.84 in 0.8 mi South 11.5 mph - N/A   Mist
9:55 AM 30.6 °F 20.7 °F 29.8 °F 97% 29.84 in 0.8 mi South 12.7 mph - 0.00 in   Mist
10:03 AM 30.2 °F 20.2 °F 30.2 °F 100% 29.83 in 0.8 mi South 12.7 mph - N/A   Mist
10:04 AM 30.2 °F 20.2 °F 30.2 °F 100% 29.83 in 0.5 mi South 12.7 mph - N/A Fog Light Freezing Fog
10:25 AM 30.2 °F 20.2 °F 30.2 °F 100% 29.82 in 0.8 mi South 12.7 mph - N/A   Mist
10:27 AM 30.2 °F 20.2 °F 30.2 °F 100% 29.82 in 0.8 mi South 12.7 mph - N/A   Mist
10:35 AM 30.2 °F 19.3 °F 30.2 °F 100% 29.83 in 0.8 mi South 15.0 mph - N/A   Mist
10:36 AM 30.2 °F 19.8 °F 30.2 °F 100% 29.83 in 1.0 mi South 13.8 mph - N/A   Mist
10:39 AM 30.2 °F 20.2 °F 30.2 °F 100% 29.82 in 1.0 mi South 12.7 mph - N/A   Mist
10:43 AM 30.2 °F 18.9 °F 30.2 °F 100% 29.83 in 1.2 mi South 16.1 mph - N/A   Overcast
10:47 AM 30.2 °F 20.2 °F 30.2 °F 100% 29.82 in 1.5 mi South 12.7 mph - N/A   Overcast
10:55 AM 30.7 °F 20.9 °F 30.0 °F 97% 29.82 in 1.5 mi South 12.7 mph - N/A   Overcast
11:07 AM 30.2 °F 20.2 °F 30.2 °F 100% 29.80 in 2.0 mi South 12.7 mph - N/A   Overcast
11:20 AM 30.2 °F 18.9 °F 30.2 °F 100% 29.80 in 1.8 mi South 16.1 mph - N/A   Overcast
11:30 AM 30.2 °F 18.1 °F 30.2 °F 100% 29.79 in 2.0 mi South 18.4 mph - N/A   Overcast
11:40 AM 30.2 °F 18.9 °F 30.2 °F 100% 29.78 in 1.8 mi South 16.1 mph - N/A   Overcast
11:53 AM 32.0 °F 21.2 °F 30.2 °F 93% 29.77 in 2.0 mi South 16.1 mph - N/A   Overcast
11:55 AM 31.1 °F 20.1 °F 30.4 °F 97% 29.77 in 1.8 mi South 16.1 mph - N/A   Overcast
12:20 PM 32.0 °F 21.6 °F 32.0 °F 100% 29.76 in 2.5 mi SSW 15.0 mph - N/A   Overcast
12:21 PM 32.0 °F 21.6 °F 32.0 °F 100% 29.76 in 3.0 mi South 15.0 mph - N/A   Overcast
12:46 PM 32.0 °F 22.1 °F 32.0 °F 100% 29.75 in 4.0 mi South 13.8 mph - N/A   Overcast
12:55 PM 32.9 °F 23.2 °F 31.8 °F 96% 29.75 in 4.0 mi SSW 13.8 mph - N/A   Overcast
1:02 PM 33.8 °F 24.3 °F 32.0 °F 93% 29.75 in 4.0 mi South 13.8 mph - N/A   Light Drizzle
1:06 PM 33.8 °F 24.8 °F 32.0 °F 93% 29.74 in 4.0 mi South 12.7 mph - N/A   Overcast
1:55 PM 33.4 °F 23.5 °F 31.8 °F 94% 29.71 in 4.0 mi South 15.0 mph - 0.00 in   Overcast
2:06 PM 33.8 °F 24.8 °F 32.0 °F 93% 29.70 in 4.0 mi South 12.7 mph - N/A   Overcast
2:38 PM 33.8 °F 24.8 °F 32.0 °F 93% 29.68 in 3.0 mi South 12.7 mph - N/A   Overcast
2:51 PM 33.8 °F 25.3 °F 32.0 °F 93% 29.68 in 2.5 mi South 11.5 mph - N/A   Overcast
3:10 PM 33.8 °F 25.3 °F 32.0 °F 93% 29.68 in 3.0 mi South 11.5 mph - N/A   Overcast
3:55 PM 34.0 °F 26.6 °F 32.9 °F 96% 29.65 in 3.0 mi South 9.2 mph - N/A   Overcast
4:12 PM 33.8 °F 27.7 °F 33.8 °F 100% 29.65 in 2.5 mi South 6.9 mph - N/A   Overcast
4:30 PM 33.8 °F 28.6 °F 32.0 °F 93% 29.64 in 2.0 mi South 5.8 mph - N/A   Mostly Cloudy
4:37 PM 33.8 °F 27.7 °F 32.0 °F 93% 29.64 in 2.0 mi South 6.9 mph - N/A   Scattered Clouds
4:51 PM 33.8 °F 27.7 °F 32.0 °F 93% 29.62 in 3.0 mi SSE 6.9 mph - N/A   Partly Cloudy
4:55 PM 33.8 °F 28.6 °F 32.0 °F 93% 29.62 in 3.0 mi SSE 5.8 mph - N/A   Clear
5:38 PM 32.0 °F 26.4 °F 32.0 °F 100% 29.61 in 3.0 mi ESE 5.8 mph - N/A   Clear
5:48 PM 32.0 °F 26.4 °F 32.0 °F 100% 29.60 in 4.0 mi ESE 5.8 mph - N/A   Clear
5:55 PM 32.5 °F 26.2 °F 31.8 °F 97% 29.60 in 4.0 mi ESE 6.9 mph - N/A   Clear
6:48 PM 32.0 °F 27.5 °F 30.2 °F 93% 29.56 in 3.0 mi SE 4.6 mph - N/A   Clear
6:55 PM 31.3 °F 25.6 °F 30.6 °F 97% 29.56 in 3.0 mi ESE 5.8 mph - N/A   Clear
6:58 PM 30.2 °F 25.4 °F 30.2 °F 100% 29.56 in 3.0 mi SSE 4.6 mph - N/A   Clear
7:46 PM 32.0 °F 27.5 °F 30.2 °F 93% 29.54 in 4.0 mi South 4.6 mph - N/A   Clear
7:55 PM 31.5 °F - 30.7 °F 97% 29.53 in 5.0 mi Calm Calm - N/A   Clear
8:13 PM 33.8 °F 28.6 °F 32.0 °F 93% 29.51 in 7.0 mi South 5.8 mph - N/A   Clear
8:55 PM 38.3 °F 30.9 °F 35.1 °F 88% 29.47 in 10.0 mi South 11.5 mph - N/A   Clear
9:55 PM 39.6 °F 33.5 °F 35.4 °F 85% 29.45 in 10.0 mi South 9.2 mph - N/A   Clear
10:55 PM 40.8 °F 34.1 °F 36.1 °F 83% 29.42 in 10.0 mi South 11.5 mph - N/A   Clear
11:55 PM 39.6 °F 33.0 °F 35.2 °F 85% 29.41 in 10.0 mi South 10.4 mph - N/A   Clear